TimeMST,TemperatureF,Dew PointF,Humidity,Sea Level PressureIn,VisibilityMPH,Wind Direction,Wind SpeedMPH,Gust SpeedMPH,PrecipitationIn,Events,Conditions,WindDirDegrees,DateUTC
12:53 AM,28.0,26.1,92,30.34,10.0,Calm,Calm,-,N/A,,Clear,0,2014-03-08 07:53:00
1:53 AM,27.0,26.1,96,30.35,10.0,Calm,Calm,-,N/A,,Clear,0,2014-03-08 08:53:00
2:53 AM,26.1,25.0,96,30.35,10.0,Calm,Calm,-,N/A,,Clear,0,2014-03-08 09:53:00
3:53 AM,26.1,24.1,92,30.36,10.0,Calm,Calm,-,N/A,,Clear,0,2014-03-08 10:53:00
4:53 AM,24.1,21.9,91,30.40,10.0,NE,3.5,-,N/A,,Clear,50,2014-03-08 11:53:00
5:53 AM,23.0,21.0,92,30.40,10.0,NNE,4.6,-,N/A,,Clear,20,2014-03-08 12:53:00
6:53 AM,21.9,19.9,92,30.43,10.0,NNE,3.5,-,N/A,,Clear,20,2014-03-08 13:53:00
7:53 AM,24.1,21.9,91,30.45,10.0,ENE,4.6,-,N/A,,Clear,70,2014-03-08 14:53:00
8:53 AM,30.0,27.0,88,30.47,10.0,Calm,Calm,-,N/A,,Clear,0,2014-03-08 15:53:00
9:53 AM,35.1,28.0,76,30.47,10.0,Calm,Calm,-,N/A,,Clear,0,2014-03-08 16:53:00
10:53 AM,37.9,28.9,70,30.46,10.0,South,5.8,-,N/A,,Clear,170,2014-03-08 17:53:00
11:53 AM,41.0,30.9,67,30.44,10.0,South,9.2,-,N/A,,Clear,190,2014-03-08 18:53:00
12:53 PM,44.1,30.0,58,30.40,10.0,South,9.2,-,N/A,,Scattered Clouds,180,2014-03-08 19:53:00
1:53 PM,46.9,30.9,54,30.34,10.0,South,9.2,-,N/A,,Scattered Clouds,170,2014-03-08 20:53:00
2:53 PM,48.0,28.0,46,30.35,10.0,WSW,12.7,20.7,N/A,,Partly Cloudy,240,2014-03-08 21:53:00
3:53 PM,48.0,27.0,44,30.34,10.0,SW,9.2,-,N/A,,Clear,220,2014-03-08 22:53:00
4:53 PM,46.9,27.0,46,30.34,10.0,SW,8.1,-,N/A,,Clear,230,2014-03-08 23:53:00
5:53 PM,46.0,28.9,51,30.34,10.0,South,5.8,-,N/A,,Clear,190,2014-03-09 00:53:00
6:53 PM,43.0,30.9,62,30.36,10.0,South,4.6,-,N/A,,Clear,170,2014-03-09 01:53:00
7:53 PM,41.0,28.0,60,30.35,10.0,South,5.8,-,N/A,,Clear,170,2014-03-09 02:53:00
8:53 PM,41.0,28.0,60,30.33,10.0,South,8.1,-,N/A,,Clear,170,2014-03-09 03:53:00
9:53 PM,41.0,28.0,60,30.33,10.0,South,10.4,-,N/A,,Clear,180,2014-03-09 04:53:00
10:53 PM,41.0,28.0,60,30.30,10.0,South,12.7,-,N/A,,Clear,180,2014-03-09 05:53:00
11:53 PM,41.0,28.0,60,30.28,10.0,South,11.5,20.7,N/A,,Clear,190,2014-03-09 06:53:00